Location: Plainartige
(45.6866°N, 1.7993°E)
Time: 04:43:47
(UTC+00:00)

BEESAT - Pass Details

Date: 26 June 2022
Orbit: 700 x 706 km, 98.6° (Epoch: 07 August)

Event Time Altitude Azimuth Distance (km) Brightness Sun altitude
Rises 21:33:07 0° 2° (N) 3,103 ? -13.8°
Reaches altitude 10° 21:35:47 10° 348° (NNW) 2,181 ? -14.0°
Maximum altitude 21:39:26 22° 297° (WNW) 1,506 ? -14.3°
Drops below altitude 10° 21:43:05 10° 247° (WSW) 2,173 ? -14.7°
Sets 21:45:44 0° 233° (SW) 3,087 ? -14.9°
